owner,sensor,date,latitude,longitude,vertical_datum,direction_of_sea_water_velocity,sea_water_speed,upward_sea_water_velocity,qcFlag 
ADCP,ioos:station:wmo:42862:1,2014-08-01T04:46:00Z,27.5700,-92.3960,66.2,69.0,53.9,6.8,'1111122,1111122,1111122' 
ADCP,ioos:station:wmo:42862:1,2014-08-01T06:06:00Z,27.5700,-92.3960,66.1,70.0,55.0,6.8,'1111122,1111122,1111122' 
ADCP,ioos:station:wmo:42862:1,2014-08-01T07:06:00Z,27.5700,-92.3960,66.2,70.0,56.5,5.4,'1111122,1111122,1111122' 
ADCP,ioos:station:wmo:42862:1,2014-08-01T08:06:00Z,27.5700,-92.3960,66.1,67.0,57.6,4.7,'1111122,1111122,1111122' 
ADCP,ioos:station:wmo:42862:1,2014-08-01T08:56:00Z,27.5700,-92.3960,66.2,68.0,56.2,3.7,'1111122,1111122,1111122' 
ADCP,ioos:station:wmo:42862:1,2014-08-01T10:06:00Z,27.5700,-92.3960,66.2,70.0,57.5,3.0,'1111122,1111122,1111122' 
ADCP,ioos:station:wmo:42862:1,2014-08-01T11:06:00Z,27.5700,-92.3960,66.2,66.0,52.6,4.7,'1111122,1111122,1111122' 
ADCP,ioos:station:wmo:42862:1,2014-08-01T12:06:00Z,27.5700,-92.3960,66.2,63.0,56.8,4.7,'1111122,1111122,1111122' 
ADCP,ioos:station:wmo:42862:1,2014-08-01T13:03:00Z,27.5700,-92.3960,66.2,64.0,57.4,5.3,'1111122,1111122,1111122' 
ADCP,ioos:station:wmo:42862:1,2014-08-01T13:23:00Z,27.5700,-92.3960,66.2,65.0,57.6,6.0,'1111122,1111122,1111122' 
ADCP,ioos:station:wmo:42862:1,2014-08-01T14:36:00Z,27.5700,-92.3960,66.2,67.0,52.3,4.9,'1111122,1111122,1111122' 
ADCP,ioos:station:wmo:42862:1,2014-08-01T22:32:00Z,27.5700,-92.3960,66.2,59.0,54.5,2.8,'1111122,1111122,1111122' 
ADCP,ioos:station:wmo:42862:1,2014-08-01T23:05:00Z,27.5700,-92.3960,66.2,62.0,53.1,0.1,'1111122,1111122,1111122' 
ADCP,ioos:station:wmo:42862:1,2014-08-02T00:05:00Z,27.5700,-92.3960,66.2,66.0,51.0,5.5,'1111122,1111122,1111122' 
ADCP,ioos:station:wmo:42862:1,2014-08-02T01:05:00Z,27.5700,-92.3960,66.2,67.0,54.5,4.6,'1111122,1111122,1111122' 
ADCP,ioos:station:wmo:42862:1,2014-08-02T02:05:00Z,27.5700,-92.3960,66.2,68.0,53.0,4.5,'1111122,1111122,1111122' 
ADCP,ioos:station:wmo:42862:1,2014-08-02T03:05:00Z,27.5700,-92.3960,66.2,73.0,57.3,4.3,'1111122,1111122,1111122' 
ADCP,ioos:station:wmo:42862:1,2014-08-02T04:05:00Z,27.5700,-92.3960,66.1,69.0,54.9,4.2,'1111122,1111122,1111122' 
ADCP,ioos:station:wmo:42862:1,2014-08-02T05:05:00Z,27.5700,-92.3960,66.1,68.0,51.0,1.7,'1111122,1111122,1111122' 
ADCP,ioos:station:wmo:42862:1,2014-08-02T05:25:00Z,27.5700,-92.3960,66.1,69.0,57.2,4.7,'1111122,1111122,1111122' 
ADCP,ioos:station:wmo:42862:1,2014-08-02T08:05:00Z,27.5700,-92.3960,66.1,69.0,57.0,8.9,'1111122,1111122,1111122' 
ADCP,ioos:station:wmo:42862:1,2014-08-02T09:05:00Z,27.5700,-92.3960,66.1,70.0,55.7,8.7,'1111122,1111122,1111122' 
ADCP,ioos:station:wmo:42862:1,2014-08-02T10:05:00Z,27.5700,-92.3960,66.1,67.0,53.6,6.8,'1111122,1111122,1111122' 
ADCP,ioos:station:wmo:42862:1,2014-08-02T11:05:00Z,27.5700,-92.3960,66.1,69.0,57.6,3.2,'1111122,1111122,1111122' 
ADCP,ioos:station:wmo:42862:1,2014-08-02T12:05:00Z,27.5700,-92.3960,66.1,68.0,56.8,1.6,'1111122,1111122,1111122' 
ADCP,ioos:station:wmo:42862:1,2014-08-02T13:05:00Z,27.5700,-92.3960,66.1,67.0,56.1,0.2,'1111122,1111122,1111122' 
ADCP,ioos:station:wmo:42862:1,2014-08-02T14:05:00Z,27.5700,-92.3960,66.2,67.0,56.3,3.4,'1111122,1111122,1111122' 
ADCP,ioos:station:wmo:42862:1,2014-08-02T16:05:00Z,27.5700,-92.3960,66.2,65.0,54.6,4.0,'1111122,1111122,1111122' 
ADCP,ioos:station:wmo:42862:1,2014-08-02T17:05:00Z,27.5700,-92.3960,66.2,63.0,56.2,4.8,'1111122,1111122,1111122' 
ADCP,ioos:station:wmo:42862:1,2014-08-02T18:05:00Z,27.5700,-92.3960,66.2,62.0,56.8,3.0,'1111122,1111122,1111122' 
ADCP,ioos:station:wmo:42862:1,2014-08-02T19:05:00Z,27.5700,-92.3960,66.2,61.0,56.2,4.5,'1111122,1111122,1111122' 
ADCP,ioos:station:wmo:42862:1,2014-08-02T20:05:00Z,27.5700,-92.3960,66.2,63.0,59.0,3.5,'1111122,1111122,1111122' 
ADCP,ioos:station:wmo:42862:1,2014-08-02T21:05:00Z,27.5700,-92.3960,66.2,61.0,57.7,2.2,'1111122,1111122,1111122' 
ADCP,ioos:station:wmo:42862:1,2014-08-02T22:05:00Z,27.5700,-92.3960,66.2,64.0,58.0,3.5,'1111122,1111122,1111122' 
ADCP,ioos:station:wmo:42862:1,2014-08-02T23:05:00Z,27.5700,-92.3960,66.2,69.0,58.4,2.7,'1111122,1111122,1111122' 
ADCP,ioos:station:wmo:42862:1,2014-08-03T00:05:00Z,27.5700,-92.3960,66.2,61.0,55.9,3.7,'1111122,1111122,1111122' 
ADCP,ioos:station:wmo:42862:1,2014-08-03T01:05:00Z,27.5700,-92.3960,66.2,67.0,54.9,-1.6,'1111122,1111122,1111122' 
ADCP,ioos:station:wmo:42862:1,2014-08-03T02:05:00Z,27.5700,-92.3960,66.2,67.0,54.9,-3.9,'1111122,1111122,1111122' 
ADCP,ioos:station:wmo:42862:1,2014-08-03T03:05:00Z,27.5700,-92.3960,66.2,62.0,54.5,-2.5,'1111122,1111122,1111122' 
ADCP,ioos:station:wmo:42862:1,2014-08-03T04:05:00Z,27.5700,-92.3960,66.2,71.0,50.7,0.5,'1111122,1111122,1111122' 
ADCP,ioos:station:wmo:42862:1,2014-08-03T05:05:00Z,27.5700,-92.3960,66.2,74.0,46.7,0.7,'1111122,1111122,1111122' 
ADCP,ioos:station:wmo:42862:1,2014-08-03T07:05:00Z,27.5700,-92.3960,66.1,69.0,48.6,1.7,'1111122,1111122,1111122' 
ADCP,ioos:station:wmo:42862:1,2014-08-03T08:05:00Z,27.5700,-92.3960,66.1,66.0,50.1,2.0,'1111122,1111122,1111122' 
ADCP,ioos:station:wmo:42862:1,2014-08-03T09:05:00Z,27.5700,-92.3960,66.1,71.0,51.8,4.8,'1111122,1111122,1111122' 
ADCP,ioos:station:wmo:42862:1,2014-08-03T10:05:00Z,27.5700,-92.3960,66.1,68.0,44.8,1.7,'1111122,1111122,1111122' 
ADCP,ioos:station:wmo:42862:1,2014-08-03T11:05:00Z,27.5700,-92.3960,66.1,69.0,53.7,0.2,'1111122,1111122,1111122' 
ADCP,ioos:station:wmo:42862:1,2014-08-03T12:05:00Z,27.5700,-92.3960,66.2,68.0,56.6,0.7,'1111122,1111122,1111122' 
ADCP,ioos:station:wmo:42862:1,2014-08-03T13:05:00Z,27.5700,-92.3960,66.2,64.0,56.7,2.1,'1111122,1111122,1111122' 
ADCP,ioos:station:wmo:42862:1,2014-08-03T14:05:00Z,27.5700,-92.3960,66.2,66.0,57.1,4.2,'1111122,1111122,1111122' 
ADCP,ioos:station:wmo:42862:1,2014-08-03T15:05:00Z,27.5700,-92.3960,66.2,65.0,56.3,5.4,'1111122,1111122,1111122' 
ADCP,ioos:station:wmo:42862:1,2014-08-03T16:05:00Z,27.5700,-92.3960,66.2,71.0,53.3,6.0,'1111122,1111122,1111122' 
ADCP,ioos:station:wmo:42862:1,2014-08-03T17:05:00Z,27.5700,-92.3960,66.1,68.0,53.6,5.5,'1111122,1111122,1111122' 
ADCP,ioos:station:wmo:42862:1,2014-08-03T18:05:00Z,27.5700,-92.3960,66.2,67.0,56.0,5.7,'1111122,1111122,1111122' 
ADCP,ioos:station:wmo:42862:1,2014-08-03T19:05:00Z,27.5700,-92.3960,66.1,69.0,57.4,5.1,'1111122,1111122,1111122' 
ADCP,ioos:station:wmo:42862:1,2014-08-03T20:05:00Z,27.5700,-92.3960,66.1,72.0,54.2,3.7,'1111122,1111122,1111122' 
ADCP,ioos:station:wmo:42862:1,2014-08-03T21:05:00Z,27.5700,-92.3960,66.1,74.0,55.8,5.2,'1111122,1111122,1111122' 
ADCP,ioos:station:wmo:42862:1,2014-08-03T22:05:00Z,27.5700,-92.3960,66.1,71.0,57.6,3.9,'1111122,1111122,1111122' 
ADCP,ioos:station:wmo:42862:1,2014-08-03T23:05:00Z,27.5700,-92.3960,66.1,73.0,58.8,5.1,'1111122,1111122,1111122' 
ADCP,ioos:station:wmo:42862:1,2014-08-04T00:05:00Z,27.5700,-92.3960,66.2,72.0,55.5,2.3,'1111122,1111122,1111122' 
ADCP,ioos:station:wmo:42862:1,2014-08-04T01:05:00Z,27.5700,-92.3960,66.2,75.0,55.9,4.1,'1111122,1111122,1111122' 
ADCP,ioos:station:wmo:42862:1,2014-08-04T02:05:00Z,27.5700,-92.3960,66.1,75.0,61.0,2.3,'1111122,1111122,1111122' 
ADCP,ioos:station:wmo:42862:1,2014-08-04T03:05:00Z,27.5700,-92.3960,66.1,74.0,59.1,2.0,'1111122,1111122,1111122' 
ADCP,ioos:station:wmo:42862:1,2014-08-04T04:05:00Z,27.5700,-92.3960,66.2,76.0,57.4,1.6,'1111122,1111122,1111122' 
ADCP,ioos:station:wmo:42862:1,2014-08-04T05:05:00Z,27.5700,-92.3960,66.2,77.0,56.8,2.7,'1111122,1111122,1111122' 
ADCP,ioos:station:wmo:42862:1,2014-08-04T06:05:00Z,27.5700,-92.3960,66.2,74.0,58.8,3.6,'1111122,1111122,1111122' 
ADCP,ioos:station:wmo:42862:1,2014-08-04T07:05:00Z,27.5700,-92.3960,66.2,77.0,54.7,0.1,'1111122,1111122,1111122' 
ADCP,ioos:station:wmo:42862:1,2014-08-04T08:05:00Z,27.5700,-92.3960,66.2,77.0,54.4,3.8,'1111122,1111122,1111122' 
ADCP,ioos:station:wmo:42862:1,2014-08-04T09:05:00Z,27.5700,-92.3960,66.2,76.0,53.5,1.5,'1111122,1111122,1111122' 
ADCP,ioos:station:wmo:42862:1,2014-08-04T10:05:00Z,27.5700,-92.3960,66.2,78.0,53.7,0.2,'1111122,1111122,1111122' 
ADCP,ioos:station:wmo:42862:1,2014-08-04T11:05:00Z,27.5700,-92.3960,66.2,76.0,66.6,3.0,'1111122,1111122,1111122' 
ADCP,ioos:station:wmo:42862:1,2014-08-04T12:05:00Z,27.5700,-92.3960,66.2,80.0,66.1,3.5,'1111122,1111122,1111122' 
ADCP,ioos:station:wmo:42862:1,2014-08-04T13:05:00Z,27.5700,-92.3960,66.2,77.0,65.4,4.8,'1111122,1111122,1111122' 
ADCP,ioos:station:wmo:42862:1,2014-08-04T15:05:00Z,27.5700,-92.3960,66.2,78.0,69.4,0.7,'1111122,1111122,1111122' 
ADCP,ioos:station:wmo:42862:1,2014-08-04T16:05:00Z,27.5700,-92.3960,66.1,82.0,69.3,2.4,'1111122,1111122,1111122' 
ADCP,ioos:station:wmo:42862:1,2014-08-04T17:05:00Z,27.5700,-92.3960,66.1,77.0,70.3,3.1,'1111122,1111122,1111122' 
ADCP,ioos:station:wmo:42862:1,2014-08-04T18:05:00Z,27.5700,-92.3960,66.1,79.0,68.6,2.3,'1111122,1111122,1111122' 
ADCP,ioos:station:wmo:42862:1,2014-08-04T20:05:00Z,27.5700,-92.3960,66.2,75.0,68.9,2.9,'1111122,1111122,1111122' 
ADCP,ioos:station:wmo:42862:1,2014-08-04T21:05:00Z,27.5700,-92.3960,66.2,75.0,69.8,2.6,'1111122,1111122,1111122' 
ADCP,ioos:station:wmo:42862:1,2014-08-04T22:05:00Z,27.5700,-92.3960,66.2,76.0,69.3,3.8,'1111122,1111122,1111122' 
ADCP,ioos:station:wmo:42862:1,2014-08-04T23:05:00Z,27.5700,-92.3960,66.1,77.0,68.7,2.6,'1111122,1111122,1111122' 
ADCP,ioos:station:wmo:42862:1,2014-08-05T00:05:00Z,27.5700,-92.3960,66.1,76.0,69.5,4.4,'1111122,1111122,1111122' 
ADCP,ioos:station:wmo:42862:1,2014-08-05T01:05:00Z,27.5700,-92.3960,66.1,78.0,64.6,6.3,'1111122,1111122,1111122' 
ADCP,ioos:station:wmo:42862:1,2014-08-05T02:05:00Z,27.5700,-92.3960,66.1,78.0,67.9,5.7,'1111122,1111122,1111122' 
ADCP,ioos:station:wmo:42862:1,2014-08-05T03:05:00Z,27.5700,-92.3960,66.1,79.0,69.2,5.5,'1111122,1111122,1111122' 
ADCP,ioos:station:wmo:42862:1,2014-08-05T04:05:00Z,27.5700,-92.3960,66.1,77.0,69.1,6.0,'1111122,1111122,1111122' 
ADCP,ioos:station:wmo:42862:1,2014-08-05T05:45:00Z,27.5700,-92.3960,66.1,76.0,66.0,6.9,'1111122,1111122,1111122' 
ADCP,ioos:station:wmo:42862:1,2014-08-05T07:06:00Z,27.5700,-92.3960,66.1,75.0,69.2,5.6,'1111122,1111122,1111122' 
ADCP,ioos:station:wmo:42862:1,2014-08-05T08:06:00Z,27.5700,-92.3960,66.1,75.0,69.5,5.0,'1111122,1111122,1111122' 
ADCP,ioos:station:wmo:42862:1,2014-08-05T08:16:00Z,27.5700,-92.3960,66.1,75.0,69.1,5.2,'1111122,1111122,1111122' 
ADCP,ioos:station:wmo:42862:1,2014-08-13T07:05:00Z,27.5700,-92.3960,66.1,49.0,43.9,3.0,'1111122,1111122,1111122' 
ADCP,ioos:station:wmo:42862:1,2014-08-13T08:05:00Z,27.5700,-92.3960,66.1,50.0,43.9,2.2,'1111122,1111122,1111122' 
ADCP,ioos:station:wmo:42862:1,2014-08-13T09:05:00Z,27.5700,-92.3960,66.1,45.0,38.3,-0.7,'1111122,1111122,1111122' 
ADCP,ioos:station:wmo:42862:1,2014-08-13T10:05:00Z,27.5700,-92.3960,66.2,43.0,43.4,0.0,'1111122,1111122,1114422' 
ADCP,ioos:station:wmo:42862:1,2014-08-13T11:05:00Z,27.5700,-92.3960,66.1,49.0,48.1,-0.2,'1111122,1111122,1111122' 
ADCP,ioos:station:wmo:42862:1,2014-08-13T12:05:00Z,27.5700,-92.3960,66.1,54.0,48.9,0.9,'1111122,1111122,1111122' 
ADCP,ioos:station:wmo:42862:1,2014-08-13T13:05:00Z,27.5700,-92.3960,66.1,52.0,48.5,0.9,'1111122,1111122,1111122' 
ADCP,ioos:station:wmo:42862:1,2014-08-13T14:05:00Z,27.5700,-92.3960,66.1,52.0,50.9,-0.9,'1111122,1111122,1111122' 
ADCP,ioos:station:wmo:42862:1,2014-08-13T15:01:00Z,27.5700,-92.3960,66.2,53.0,49.0,0.2,'1111122,1111122,1111122' 
ADCP,ioos:station:wmo:42862:1,2014-08-13T16:01:00Z,27.5700,-92.3960,66.2,53.0,48.6,-0.2,'1111122,1111122,1111122' 
ADCP,ioos:station:wmo:42862:1,2014-08-13T17:01:00Z,27.5700,-92.3960,66.2,54.0,45.6,2.3,'1111122,1111122,1111122' 
ADCP,ioos:station:wmo:42862:1,2014-08-13T18:01:00Z,27.5700,-92.3960,66.2,55.0,46.3,2.0,'1111122,1111122,1111122' 
ADCP,ioos:station:wmo:42862:1,2014-08-13T20:01:00Z,27.5700,-92.3960,66.2,56.0,42.7,2.0,'1111122,1111122,1111122' 
ADCP,ioos:station:wmo:42862:1,2014-08-13T21:21:00Z,27.5700,-92.3960,66.1,56.0,40.0,0.1,'1111122,1111122,1111122' 
ADCP,ioos:station:wmo:42862:1,2014-08-13T22:01:00Z,27.5700,-92.3960,66.1,57.0,41.1,0.5,'1111122,1111122,1111122' 
ADCP,ioos:station:wmo:42862:1,2014-08-13T23:01:00Z,27.5700,-92.3960,66.2,51.0,40.1,0.5,'1111122,1111122,1111122' 
ADCP,ioos:station:wmo:42862:1,2014-08-14T00:01:00Z,27.5700,-92.3960,66.2,45.0,41.6,2.2,'1111122,1111122,1111122' 
ADCP,ioos:station:wmo:42862:1,2014-08-14T01:01:00Z,27.5700,-92.3960,66.2,54.0,33.1,3.6,'1111122,1111122,1111122' 
ADCP,ioos:station:wmo:42862:1,2014-08-14T02:01:00Z,27.5700,-92.3960,66.2,48.0,36.6,1.9,'1111122,1111122,1111122' 
ADCP,ioos:station:wmo:42862:1,2014-08-14T03:01:00Z,27.5700,-92.3960,66.2,45.0,38.7,2.9,'1111122,1111122,1111122' 
ADCP,ioos:station:wmo:42862:1,2014-08-14T04:01:00Z,27.5700,-92.3960,66.2,49.0,39.1,2.1,'1111122,1111122,1111122' 
ADCP,ioos:station:wmo:42862:1,2014-08-14T04:21:00Z,27.5700,-92.3960,66.2,46.0,38.5,1.0,'1111122,1111122,1111122' 
ADCP,ioos:station:wmo:42862:1,2014-08-14T07:01:00Z,27.5700,-92.3960,66.1,45.0,33.2,2.3,'1111122,1111122,1111122' 
ADCP,ioos:station:wmo:42862:1,2014-08-14T08:01:00Z,27.5700,-92.3960,66.1,43.0,37.9,1.3,'1111122,1111122,1111122' 
ADCP,ioos:station:wmo:42862:1,2014-08-14T09:01:00Z,27.5700,-92.3960,66.1,46.0,36.4,-0.4,'1111122,1111122,1111122' 
ADCP,ioos:station:wmo:42862:1,2014-08-14T10:01:00Z,27.5700,-92.3960,66.1,45.0,40.2,1.4,'1111122,1111122,1111122' 
ADCP,ioos:station:wmo:42862:1,2014-08-14T11:01:00Z,27.5700,-92.3960,66.2,45.0,40.0,-2.0,'1111122,1111122,1111122' 
ADCP,ioos:station:wmo:42862:1,2014-08-14T11:41:00Z,27.5700,-92.3960,66.2,47.0,36.4,-2.1,'1111122,1111122,1111122' 
ADCP,ioos:station:wmo:42862:1,2014-08-14T12:41:00Z,27.5700,-92.3960,66.2,44.0,39.8,-4.9,'1111122,1111122,1111122' 
ADCP,ioos:station:wmo:42862:1,2014-08-14T20:01:00Z,27.5700,-92.3960,66.2,56.0,32.3,-2.1,'1111122,1111122,1111122' 
ADCP,ioos:station:wmo:42862:1,2014-08-15T03:01:00Z,27.5700,-92.3960,66.2,42.0,26.8,-1.8,'1111122,1111122,1111122' 
ADCP,ioos:station:wmo:42862:1,2014-08-15T04:01:00Z,27.5700,-92.3960,66.2,37.0,24.7,-1.2,'1111122,1111122,1111122' 
ADCP,ioos:station:wmo:42862:1,2014-08-15T05:01:00Z,27.5700,-92.3960,66.2,49.0,29.8,1.3,'1111122,1111122,1111122' 
ADCP,ioos:station:wmo:42862:1,2014-08-15T07:01:00Z,27.5700,-92.3960,66.2,47.0,27.7,-2.3,'1111122,1111122,1111122' 
ADCP,ioos:station:wmo:42862:1,2014-08-15T08:01:00Z,27.5700,-92.3960,66.1,51.0,32.4,-2.1,'1111122,1111122,1111122' 
ADCP,ioos:station:wmo:42862:1,2014-08-15T09:01:00Z,27.5700,-92.3960,66.1,39.0,20.5,-2.0,'1111122,1111122,1111122' 
ADCP,ioos:station:wmo:42862:1,2014-08-15T10:01:00Z,27.5700,-92.3960,66.1,45.0,26.7,-0.6,'1111122,1111122,1111122' 
ADCP,ioos:station:wmo:42862:1,2014-08-15T12:01:00Z,27.5700,-92.3960,66.2,48.0,30.9,-6.4,'1111122,1111122,1111122' 
ADCP,ioos:station:wmo:42862:1,2014-08-15T13:01:00Z,27.5700,-92.3960,66.1,55.0,30.6,-4.4,'1111122,1111122,1111122' 
ADCP,ioos:station:wmo:42862:1,2014-08-15T14:01:00Z,27.5700,-92.3960,66.1,58.0,30.9,-4.8,'1111122,1111122,1111122' 
ADCP,ioos:station:wmo:42862:1,2014-08-15T15:01:00Z,27.5700,-92.3960,66.1,61.0,26.7,-3.4,'1111122,1111122,1111122' 
ADCP,ioos:station:wmo:42862:1,2014-08-15T16:01:00Z,27.5700,-92.3960,66.2,55.0,27.8,-3.6,'1111122,1111122,1111122' 
ADCP,ioos:station:wmo:42862:1,2014-08-15T17:01:00Z,27.5700,-92.3960,66.2,53.0,24.3,-4.4,'1111122,1111122,1111122' 
ADCP,ioos:station:wmo:42862:1,2014-08-15T18:01:00Z,27.5700,-92.3960,66.1,65.0,25.6,-2.9,'1111122,1111122,1111122' 
ADCP,ioos:station:wmo:42862:1,2014-08-15T19:01:00Z,27.5700,-92.3960,66.1,62.0,22.0,-2.9,'1111122,1111122,1111122' 
ADCP,ioos:station:wmo:42862:1,2014-08-15T20:01:00Z,27.5700,-92.3960,66.1,49.0,22.1,-2.9,'1111122,1111122,1111122' 
ADCP,ioos:station:wmo:42862:1,2014-08-15T21:01:00Z,27.5700,-92.3960,66.2,52.0,21.8,-2.6,'1111122,1111122,1111122' 
ADCP,ioos:station:wmo:42862:1,2014-08-15T22:01:00Z,27.5700,-92.3960,66.2,54.0,22.0,-1.5,'1111122,1111122,1111122' 
ADCP,ioos:station:wmo:42862:1,2014-08-15T23:01:00Z,27.5700,-92.3960,66.2,51.0,20.4,-1.1,'1111122,1111122,1111122' 
ADCP,ioos:station:wmo:42862:1,2014-08-16T00:01:00Z,27.5700,-92.3960,66.2,54.0,22.6,-1.5,'1111122,1111122,1111122' 
ADCP,ioos:station:wmo:42862:1,2014-08-16T01:01:00Z,27.5700,-92.3960,66.2,45.0,24.8,-0.2,'1111122,1111122,1111122' 
ADCP,ioos:station:wmo:42862:1,2014-08-16T02:01:00Z,27.5700,-92.3960,66.2,49.0,24.4,0.4,'1111122,1111122,1111122' 
ADCP,ioos:station:wmo:42862:1,2014-08-16T03:01:00Z,27.5700,-92.3960,66.2,40.0,24.7,-1.0,'1111122,1111122,1111122' 
ADCP,ioos:station:wmo:42862:1,2014-08-16T04:01:00Z,27.5700,-92.3960,66.2,46.0,29.8,-0.2,'1111122,1111122,1111122' 
ADCP,ioos:station:wmo:42862:1,2014-08-16T05:01:00Z,27.5700,-92.3960,66.2,38.0,31.5,-1.9,'1111122,1111122,1111122' 
ADCP,ioos:station:wmo:42862:1,2014-08-16T06:01:00Z,27.5700,-92.3960,66.2,52.0,30.6,-0.1,'1111122,1111122,1111122' 
ADCP,ioos:station:wmo:42862:1,2014-08-16T07:01:00Z,27.5700,-92.3960,66.2,51.0,30.8,-0.5,'1111122,1111122,1111122' 
ADCP,ioos:station:wmo:42862:1,2014-08-16T07:41:00Z,27.5700,-92.3960,66.2,55.0,29.4,-1.2,'1111122,1111122,1111122' 
ADCP,ioos:station:wmo:42862:1,2014-08-16T09:01:00Z,27.5700,-92.3960,66.2,58.0,25.7,-1.6,'1111122,1111122,1111122' 
ADCP,ioos:station:wmo:42862:1,2014-08-16T10:01:00Z,27.5700,-92.3960,66.2,58.0,18.0,-2.6,'1111122,1111122,1111122' 
ADCP,ioos:station:wmo:42862:1,2014-08-16T11:01:00Z,27.5700,-92.3960,66.1,59.0,31.0,-4.8,'1111122,1111122,1111122' 
ADCP,ioos:station:wmo:42862:1,2014-08-16T12:01:00Z,27.5700,-92.3960,66.1,70.0,24.9,-4.1,'1111122,1111122,1111122' 
ADCP,ioos:station:wmo:42862:1,2014-08-16T13:01:00Z,27.5700,-92.3960,66.1,72.0,26.4,-2.2,'1111122,1111122,1111122' 
ADCP,ioos:station:wmo:42862:1,2014-08-16T14:01:00Z,27.5700,-92.3960,66.2,73.0,22.5,-1.8,'1111122,1111122,1111122' 
ADCP,ioos:station:wmo:42862:1,2014-08-16T15:01:00Z,27.5700,-92.3960,66.2,75.0,18.5,-1.5,'1111122,1111122,1111122' 
ADCP,ioos:station:wmo:42862:1,2014-08-16T16:01:00Z,27.5700,-92.3960,66.2,64.0,16.9,-0.7,'1111122,1111122,1111122' 
ADCP,ioos:station:wmo:42862:1,2014-08-16T17:01:00Z,27.5700,-92.3960,66.2,74.0,12.1,-1.5,'1111122,1111122,1111122' 
ADCP,ioos:station:wmo:42862:1,2014-08-16T18:01:00Z,27.5700,-92.3960,66.2,67.0,12.9,-1.9,'1111122,1111122,1111122' 
ADCP,ioos:station:wmo:42862:1,2014-08-16T19:01:00Z,27.5700,-92.3960,66.2,37.0,15.9,-1.0,'1111122,1111122,1111122' 
ADCP,ioos:station:wmo:42862:1,2014-08-16T20:01:00Z,27.5700,-92.3960,66.2,51.0,14.5,-2.0,'1111122,1111122,1111122' 
ADCP,ioos:station:wmo:42862:1,2014-08-16T22:01:00Z,27.5700,-92.3960,66.2,45.0,21.9,-2.9,'1111122,1111122,1111122' 
ADCP,ioos:station:wmo:42862:1,2014-08-16T23:01:00Z,27.5700,-92.3960,66.2,50.0,23.2,-5.0,'1111122,1111122,1111122' 
ADCP,ioos:station:wmo:42862:1,2014-08-17T00:01:00Z,27.5700,-92.3960,66.2,46.0,25.0,-3.9,'1111122,1111122,1111122' 
ADCP,ioos:station:wmo:42862:1,2014-08-17T01:01:00Z,27.5700,-92.3960,66.2,43.0,24.5,-1.8,'1111122,1111122,1111122' 
ADCP,ioos:station:wmo:42862:1,2014-08-17T02:01:00Z,27.5700,-92.3960,66.1,53.0,24.3,-3.7,'1111122,1111122,1111122' 
ADCP,ioos:station:wmo:42862:1,2014-08-17T03:01:00Z,27.5700,-92.3960,66.2,49.0,25.8,-4.4,'1111122,1111122,1111122' 
ADCP,ioos:station:wmo:42862:1,2014-08-17T04:01:00Z,27.5700,-92.3960,66.2,51.0,23.3,-3.4,'1111122,1111122,1111122' 
ADCP,ioos:station:wmo:42862:1,2014-08-17T04:21:00Z,27.5700,-92.3960,66.2,47.0,24.2,-4.0,'1111122,1111122,1111122' 
ADCP,ioos:station:wmo:42862:1,2014-08-17T07:01:00Z,27.5700,-92.3960,66.1,56.0,27.0,-4.4,'1111122,1111122,1111122' 
ADCP,ioos:station:wmo:42862:1,2014-08-17T08:01:00Z,27.5700,-92.3960,66.2,55.0,28.9,-2.2,'1111122,1111122,1111122' 
ADCP,ioos:station:wmo:42862:1,2014-08-17T09:01:00Z,27.5700,-92.3960,66.2,63.0,29.8,-3.8,'1111122,1111122,1111122' 
ADCP,ioos:station:wmo:42862:1,2014-08-17T10:01:00Z,27.5700,-92.3960,66.2,61.0,26.6,-4.9,'1111122,1111122,1111122' 
ADCP,ioos:station:wmo:42862:1,2014-08-17T11:01:00Z,27.5700,-92.3960,66.2,69.0,30.4,-5.2,'1111122,1111122,1111122' 
ADCP,ioos:station:wmo:42862:1,2014-08-17T12:01:00Z,27.5700,-92.3960,66.2,68.0,32.0,-5.1,'1111122,1111122,1111122' 
ADCP,ioos:station:wmo:42862:1,2014-08-17T13:01:00Z,27.5700,-92.3960,66.2,75.0,29.8,-5.4,'1111122,1111122,1111122' 
ADCP,ioos:station:wmo:42862:1,2014-08-17T13:51:00Z,27.5700,-92.3960,66.1,77.0,24.9,-3.5,'1111122,1111122,1111122' 
ADCP,ioos:station:wmo:42862:1,2014-08-17T15:01:00Z,27.5700,-92.3960,66.2,84.0,23.9,-2.6,'1111122,1111122,1111122' 
ADCP,ioos:station:wmo:42862:1,2014-08-17T15:41:00Z,27.5700,-92.3960,66.2,81.0,23.4,-3.5,'1111122,1111122,1111122' 
ADCP,ioos:station:wmo:42862:1,2014-08-17T17:01:00Z,27.5700,-92.3960,66.2,69.0,20.7,-4.8,'1111122,1111122,1111122' 
ADCP,ioos:station:wmo:42862:1,2014-08-17T18:01:00Z,27.5700,-92.3960,66.1,77.0,13.3,-6.2,'1111122,1111122,1111122' 
ADCP,ioos:station:wmo:42862:1,2014-08-17T19:01:00Z,27.5700,-92.3960,66.1,61.0,15.0,-4.8,'1111122,1111122,1111122' 
ADCP,ioos:station:wmo:42862:1,2014-08-17T20:01:00Z,27.5700,-92.3960,66.1,46.0,14.7,-4.8,'1111122,1111122,1111122' 
ADCP,ioos:station:wmo:42862:1,2014-08-17T21:01:00Z,27.5700,-92.3960,66.1,39.0,18.9,-3.9,'1111122,1111122,1111122' 
ADCP,ioos:station:wmo:42862:1,2014-08-17T22:01:00Z,27.5700,-92.3960,66.1,33.0,17.5,-4.4,'1111122,1111122,1111122' 
ADCP,ioos:station:wmo:42862:1,2014-08-17T23:01:00Z,27.5700,-92.3960,66.2,39.0,18.4,-5.2,'1111122,1111122,1111122' 
ADCP,ioos:station:wmo:42862:1,2014-08-18T00:01:00Z,27.5700,-92.3960,66.2,47.0,23.4,-3.2,'1111122,1111122,1111122' 
ADCP,ioos:station:wmo:42862:1,2014-08-18T01:21:00Z,27.5700,-92.3960,66.2,52.0,21.2,-2.3,'1111122,1111122,1111122' 
ADCP,ioos:station:wmo:42862:1,2014-08-18T02:01:00Z,27.5700,-92.3960,66.2,50.0,22.4,-2.6,'1111122,1111122,1111122' 
ADCP,ioos:station:wmo:42862:1,2014-08-18T04:01:00Z,27.5700,-92.3960,66.2,47.0,27.2,-4.0,'1111122,1111122,1111122' 
ADCP,ioos:station:wmo:42862:1,2014-08-18T04:41:00Z,27.5700,-92.3960,66.2,53.0,26.5,-2.9,'1111122,1111122,1111122' 
ADCP,ioos:station:wmo:42862:1,2014-08-18T07:01:00Z,27.5700,-92.3960,66.2,65.0,29.4,-0.9,'1111122,1111122,1111122' 
ADCP,ioos:station:wmo:42862:1,2014-08-18T08:01:00Z,27.5700,-92.3960,66.2,62.0,28.9,-1.8,'1111122,1111122,1111122' 
ADCP,ioos:station:wmo:42862:1,2014-08-18T09:01:00Z,27.5700,-92.3960,66.2,59.0,27.9,-2.0,'1111122,1111122,1111122' 
ADCP,ioos:station:wmo:42862:1,2014-08-18T10:01:00Z,27.5700,-92.3960,66.2,59.0,28.4,-1.8,'1111122,1111122,1111122' 
ADCP,ioos:station:wmo:42862:1,2014-08-18T11:01:00Z,27.5700,-92.3960,66.2,68.0,30.4,-3.8,'1111122,1111122,1111122' 
ADCP,ioos:station:wmo:42862:1,2014-08-18T12:01:00Z,27.5700,-92.3960,66.2,70.0,32.5,0.3,'1111122,1111122,1111122' 
ADCP,ioos:station:wmo:42862:1,2014-08-18T14:01:00Z,27.5700,-92.3960,66.1,81.0,24.3,-2.3,'1111122,1111122,1111122' 
ADCP,ioos:station:wmo:42862:1,2014-08-18T15:01:00Z,27.5700,-92.3960,66.2,96.0,16.9,-3.6,'1111122,1111122,1111122' 
ADCP,ioos:station:wmo:42862:1,2014-08-18T16:01:00Z,27.5700,-92.3960,66.2,78.0,5.8,-2.7,'1111122,1111122,1111122' 
ADCP,ioos:station:wmo:42862:1,2014-08-18T17:01:00Z,27.5700,-92.3960,66.1,67.0,9.6,-2.9,'1111122,1111122,1111122' 
ADCP,ioos:station:wmo:42862:1,2014-08-18T19:01:00Z,27.5700,-92.3960,66.1,40.0,9.7,-2.6,'1111122,1111122,1111122' 
ADCP,ioos:station:wmo:42862:1,2014-08-18T23:07:00Z,27.5700,-92.3960,66.1,25.0,27.9,-5.8,'1111122,1111122,1111122' 
ADCP,ioos:station:wmo:42862:1,2014-08-19T00:07:00Z,27.5700,-92.3960,66.1,45.0,26.5,-8.9,'1111122,1111122,1111122' 
ADCP,ioos:station:wmo:42862:1,2014-08-19T01:07:00Z,27.5700,-92.3960,66.1,44.0,27.5,-7.1,'1111122,1111122,1111122' 
ADCP,ioos:station:wmo:42862:1,2014-08-19T02:07:00Z,27.5700,-92.3960,66.1,52.0,27.4,-4.4,'1111122,1111122,1111122' 
ADCP,ioos:station:wmo:42862:1,2014-08-19T03:07:00Z,27.5700,-92.3960,66.1,55.0,25.5,-6.2,'1111122,1111122,1111122' 
ADCP,ioos:station:wmo:42862:1,2014-08-19T04:07:00Z,27.5700,-92.3960,66.1,57.0,31.2,-3.7,'1111122,1111122,1111122' 
ADCP,ioos:station:wmo:42862:1,2014-08-19T04:47:00Z,27.5700,-92.3960,66.1,67.0,28.3,-3.8,'1111122,1111122,1111122' 
ADCP,ioos:station:wmo:42862:1,2014-08-19T07:07:00Z,27.5700,-92.3960,66.2,70.0,26.0,-2.1,'1111122,1111122,1111122' 